GW5431 Weather Reports


time (UTC)temp
F
wind
direction
speed
knots
gust
knots
rain 1hr
in
rain 24hr
in
rain mn
in
humidity
%
barometer
mb
20260504205104 80 160 2.6 2.6 0.00 0.00 0.00 43 1012.4
20260504204602 80 107 0.9 1.7 0.00 0.00 0.00 42 1012.5
20260504204101 79 140 0.0 0.0 0.00 0.00 0.00 44 1012.7
20260504203559 81 141 2.6 2.6 0.00 0.00 0.00 42 1012.6
20260504203056 82 182 0.9 0.9 0.00 0.00 0.00 40 1012.6
20260504202551 81 146 1.7 1.7 0.00 0.00 0.00 39 1012.7
20260504202048 81 137 1.7 1.7 0.00 0.00 0.00 40 1012.7
20260504201545 81 182 1.7 2.6 0.00 0.00 0.00 42 1012.5
20260504201043 81 154 1.7 1.7 0.00 0.00 0.00 41 1012.9
20260504200539 80 25 1.7 1.7 0.00 0.00 0.00 44 1012.6
20260504200036 79 157 0.0 0.9 0.00 0.00 0.00 46 1012.9
20260504195532 79 153 1.7 1.7 0.00 0.00 0.00 45 1012.8
20260504195029 80 105 2.6 3.5 0.00 0.00 0.00 44 1012.8
20260504194525 79 140 0.0 0.9 0.00 0.00 0.00 44 1012.9
20260504194020 79 110 2.6 3.5 0.00 0.00 0.00 44 1012.9
20260504193517 78 173 0.9 0.9 0.00 0.00 0.00 43 1013.2
20260504193017 77 151 0.9 0.9 0.00 0.00 0.00 46 1013.3
20260504192514 78 122 2.6 2.6 0.00 0.00 0.00 44 1013.2
20260504192012 80 129 0.9 1.7 0.00 0.00 0.00 43 1013.3
20260504191510 80 96 1.7 5.2 0.00 0.00 0.00 45 1013.0
20260504191005 80 164 2.6 2.6 0.00 0.00 0.00 43 1013.3
20260504190501 81 156 0.9 1.7 0.00 0.00 0.00 45 1013.3
20260504185958 81 196 1.7 2.6 0.00 0.00 0.00 43 1013.5
20260504185455 80 159 1.7 2.6 0.00 0.00 0.00 46 1013.7
20260504184951 80 151 0.9 1.7 0.00 0.00 0.00 43 1013.7
20260504184447 80 193 2.6 2.6 0.00 0.00 0.00 44 1013.8
20260504183943 80 175 1.7 1.7 0.00 0.00 0.00 46 1013.7
20260504183440 80 157 0.9 1.7 0.00 0.00 0.00 45 1013.7
20260504182938 79 148 0.0 0.9 0.00 0.00 0.00 49 1013.9
20260504182434 79 159 0.9 0.9 0.00 0.00 0.00 45 1013.9
20260504181932 80 119 0.9 0.9 0.00 0.00 0.00 44 1014.1
20260504181429 81 129 0.9 0.9 0.00 0.00 0.00 44 1014.1
20260504180928 80 139 0.9 0.9 0.00 0.00 0.00 47 1014.2
20260504180426 80 133 0.9 0.9 0.00 0.00 0.00 44 1014.1
20260504175924 79 160 1.7 1.7 0.00 0.00 0.00 44 1014.4
20260504175421 79 155 0.9 0.9 0.00 0.00 0.00 45 1014.2
20260504174918 80 120 0.9 1.7 0.00 0.00 0.00 47 1014.2
20260504174416 79 146 0.9 0.9 0.00 0.00 0.00 45 1014.5
20260504173913 79 57 2.6 3.5 0.00 0.00 0.00 46 1014.5
20260504173409 78 58 0.9 1.7 0.00 0.00 0.00 45 1014.5
20260504172907 78 206 3.5 3.5 0.00 0.00 0.00 45 1014.6
20260504172403 77 146 0.0 0.9 0.00 0.00 0.00 48 1014.6
20260504171859 78 199 2.6 6.1 0.00 0.00 0.00 44 1014.6
20260504171356 78 112 0.0 0.9 0.00 0.00 0.00 48 1014.6
20260504170853 77 185 1.7 1.7 0.00 0.00 0.00 48 1014.8
20260504170350 78 133 1.7 1.7 0.00 0.00 0.00 48 1014.8
20260504160308 74 154 1.7 1.7 0.00 0.00 0.00 50 1015.9
20260504150733 72 110 0.0 0.9 0.00 0.00 0.00 51 1015.8
20260504150230 72 196 0.9 1.7 0.00 0.00 0.00 50 1016.0
20260504141159 67 134 0.0 0.0 0.00 0.00 0.00 56 1016.2
20260504140656 66 138 0.0 0.9 0.00 0.00 0.00 59 1016.3
20260504140152 65 152 0.9 0.9 0.00 0.00 0.00 60 1016.2
20260504130620 59 141 0.0 0.0 0.00 0.00 0.00 68 1016.6
20260504130117 59 151 0.9 0.9 0.00 0.00 0.00 69 1016.5
20260504110508 51 130 0.0 0.0 0.00 0.00 0.00 77 1015.5
20260504100430 50 137 0.0 0.0 0.00 0.00 0.00 80 1015.3
20260504081823 48 141 0.0 0.0 0.00 0.00 0.00 87 1015.3
20260504081320 48 141 0.0 0.0 0.00 0.00 0.00 87 1015.3
20260504080816 48 141 0.0 0.0 0.00 0.00 0.00 86 1015.4
20260504080313 48 141 0.0 0.0 0.00 0.00 0.00 86 1015.4
20260504070240 48 141 0.0 0.0 0.00 0.00 0.00 86 1015.9
20260504060201 48 139 0.0 0.0 0.00 0.00 0.00 87 1016.6
20260504050629 50 140 0.0 0.0 0.00 0.00 0.00 84 1016.8
20260504050126 50 138 0.0 0.0 0.00 0.00 0.00 84 1016.8
20260504045624 50 139 0.0 0.0 0.00 0.00 0.00 84 1017.0
20260504045123 50 136 0.0 0.0 0.00 0.00 0.00 85 1016.9
20260504044622 50 140 0.0 0.0 0.00 0.00 0.00 85 1016.9
20260504044118 50 140 0.0 0.0 0.00 0.00 0.00 85 1016.8
20260504043615 50 140 0.0 0.0 0.00 0.00 0.00 85 1016.9
20260504043113 50 140 0.0 0.0 0.00 0.00 0.00 84 1016.9
20260504042610 50 140 0.0 0.0 0.00 0.00 0.00 83 1016.9
20260504042107 50 141 0.0 0.0 0.00 0.00 0.00 84 1016.8
20260504041602 50 141 0.0 0.0 0.00 0.00 0.00 84 1016.9
20260504041059 50 140 0.0 0.0 0.00 0.00 0.00 83 1016.8
20260504040556 50 141 0.0 0.0 0.00 0.00 0.00 84 1016.9
20260504040053 50 140 0.0 0.0 0.00 0.00 0.00 84 1017.0
20260504035549 50 140 0.0 0.0 0.00 0.00 0.00 84 1016.9
20260504035046 50 141 0.0 0.0 0.00 0.00 0.00 85 1017.1
20260504034544 50 139 0.0 0.0 0.00 0.00 0.00 85 1017.0
20260504034040 50 137 0.0 0.0 0.00 0.00 0.00 84 1017.3
20260504033538 50 135 0.0 0.0 0.00 0.00 0.00 83 1017.3
20260504033035 50 134 0.0 0.0 0.00 0.00 0.00 82 1017.3
20260504032532 50 134 0.0 0.0 0.00 0.00 0.00 83 1017.3
20260504032029 50 137 0.0 0.0 0.00 0.00 0.00 80 1017.2
20260504031526 50 135 0.0 0.0 0.00 0.00 0.00 78 1017.4
20260504031022 51 135 0.0 0.0 0.00 0.00 0.00 78 1017.5
20260504030520 51 135 0.0 0.0 0.00 0.00 0.00 79 1017.6
20260504030016 51 135 0.0 0.0 0.00 0.00 0.00 77 1017.5
20260504025513 51 131 0.0 0.0 0.00 0.00 0.00 77 1017.5
20260504025010 51 129 0.0 0.0 0.00 0.00 0.00 79 1017.9
20260504024507 52 137 0.0 0.0 0.00 0.00 0.00 78 1017.6
20260504024004 52 137 0.0 0.0 0.00 0.00 0.00 77 1017.6
20260504023500 52 134 0.0 0.0 0.00 0.00 0.00 74 1017.7
20260504022956 52 132 0.0 0.0 0.00 0.00 0.00 76 1017.5
20260504022452 53 135 0.0 0.0 0.00 0.00 0.00 77 1017.6
20260504021949 53 135 0.0 0.0 0.00 0.00 0.00 75 1017.4
20260504021446 53 132 0.0 0.0 0.00 0.00 0.00 73 1017.4
20260504020944 53 133 0.0 0.0 0.00 0.00 0.00 74 1017.3
20260504020440 53 129 0.0 0.0 0.00 0.00 0.00 74 1017.2
20260504015937 53 136 0.0 0.0 0.00 0.00 0.00 74 1016.8
20260504015433 53 136 0.0 0.0 0.00 0.00 0.00 72 1017.0
20260504014929 53 136 0.0 0.0 0.00 0.00 0.00 72 1016.9
20260504014425 53 133 0.0 0.0 0.00 0.00 0.00 72 1016.7
20260504013922 53 133 0.0 0.0 0.00 0.00 0.00 73 1016.7
20260504013421 53 134 0.0 0.0 0.00 0.00 0.00 75 1016.7
20260504012916 53 134 0.0 0.0 0.00 0.00 0.00 73 1016.3
20260504012414 53 134 0.0 0.0 0.00 0.00 0.00 73 1016.5
20260504011912 54 134 0.0 0.0 0.00 0.00 0.00 71 1016.6
20260504011408 54 134 0.0 0.0 0.00 0.00 0.00 70 1016.3
20260504010904 55 133 0.0 0.0 0.00 0.00 0.00 71 1016.5
20260504010400 55 130 0.0 0.0 0.00 0.00 0.00 72 1016.2
20260504005856 55 133 0.0 0.0 0.00 0.00 0.00 71 1016.3
20260504005353 55 133 0.0 0.0 0.00 0.00 0.00 71 1016.5
20260504004851 56 138 0.0 0.0 0.00 0.00 0.00 69 1016.5
20260504004348 57 138 0.0 0.0 0.00 0.00 0.00 68 1016.3
20260504003845 58 138 0.0 0.0 0.00 0.00 0.00 69 1016.2
20260504003342 58 138 0.0 0.0 0.00 0.00 0.00 68 1016.3
20260504002838 59 139 0.0 0.0 0.00 0.00 0.00 68 1016.5
20260504002335 60 139 0.0 0.0 0.00 0.00 0.00 63 1016.5
20260504001833 61 139 0.0 0.0 0.00 0.00 0.00 60 1016.5
20260504001330 61 134 0.0 0.0 0.00 0.00 0.00 60 1016.5
20260504000827 62 138 0.0 0.0 0.00 0.00 0.00 58 1016.7
20260504000324 63 137 0.0 0.0 0.00 0.00 0.00 54 1016.6
20260503235821 64 136 0.0 0.0 0.00 0.00 0.00 52 1016.7
20260503235319 64 140 0.0 0.0 0.00 0.00 0.00 50 1016.8
20260503234816 65 139 0.0 0.0 0.00 0.00 0.00 48 1016.7
20260503234314 65 138 0.0 0.0 0.00 0.00 0.00 46 1016.7
20260503233811 66 142 0.0 0.0 0.00 0.00 0.00 46 1016.5
20260503233307 66 153 0.9 1.7 0.00 0.00 0.00 48 1016.6
20260503232804 67 138 0.0 0.0 0.00 0.00 0.00 43 1016.7
20260503232301 68 133 0.0 0.0 0.00 0.00 0.00 40 1016.8
20260503231759 68 132 0.0 0.0 0.00 0.00 0.00 41 1016.7
20260503231256 69 139 0.0 0.0 0.00 0.00 0.00 42 1016.9
20260503230756 69 138 0.0 0.0 0.00 0.00 0.00 41 1016.9
20260503230254 70 140 0.9 0.9 0.00 0.00 0.00 40 1017.0
20260503225752 70 144 0.0 0.0 0.00 0.00 0.00 40 1016.7
20260503225252 69 136 0.0 0.0 0.00 0.00 0.00 37 1016.9
20260503224748 70 138 0.9 1.7 0.00 0.00 0.00 37 1016.9
20260503224246 70 74 0.9 0.9 0.00 0.00 0.00 37 1017.0
20260503223744 70 131 0.9 0.9 0.00 0.00 0.00 39 1017.1
20260503223241 70 15 1.7 2.6 0.00 0.00 0.00 37 1016.9
20260503222737 71 120 0.9 0.9 0.00 0.00 0.00 36 1017.0
20260503222235 71 55 0.9 0.9 0.00 0.00 0.00 37 1017.1
20260503221733 71 143 0.0 0.9 0.00 0.00 0.00 36 1017.0
20260503221231 70 154 0.0 0.0 0.00 0.00 0.00 37 1017.2
20260503220727 71 147 0.9 0.9 0.00 0.00 0.00 39 1017.1
20260503220224 71 143 0.9 1.7 0.00 0.00 0.00 37 1017.3
20260503215721 71 165 0.9 0.9 0.00 0.00 0.00 36 1017.3
20260503215218 70 99 0.0 0.9 0.00 0.00 0.00 36 1017.3
20260503214716 70 104 0.0 0.9 0.00 0.00 0.00 36 1017.3
20260503214212 70 139 0.9 1.7 0.00 0.00 0.00 35 1017.5
20260503213711 70 151 0.9 1.7 0.00 0.00 0.00 36 1017.7
20260503213208 71 85 1.7 2.6 0.00 0.00 0.00 34 1017.7
20260503212704 71 183 2.6 3.5 0.00 0.00 0.00 35 1017.6
20260503212202 71 151 0.0 0.9 0.00 0.00 0.00 37 1017.7
20260503211700 71 155 0.0 0.9 0.00 0.00 0.00 35 1017.9
20260503211155 71 150 0.9 0.9 0.00 0.00 0.00 36 1017.9
20260503210651 71 310 0.9 1.7 0.00 0.00 0.00 34 1017.9
20260503210148 71 150 0.0 0.9 0.00 0.00 0.00 39 1017.9
20260503205644 71 195 1.7 1.7 0.00 0.00 0.00 38 1017.9